When you browse on this site, cookies collect data to enhance your experience and personalize the content and advertising you see.
Visit our Privacy Policy to learn more. By continuing to use the site, you agree to this use of cookies and data.
  • In Hungary
  • List of Countries
  • For 7 days
  • Water Temperature
  • Satellite Maps
  • Weather Map
  • News
  • Weather Widgets
  • user-avatar
    Login

    Hourly Weather Jerzmanowice

    Today, 20 April, Saturday

    Time Temperature Precipitation Wind Pressure Humidity
    00:00 +8°C° 0 mm 1 mps 732 mmHg 58%
    01:00 +9°C° 0 mm 1 mps 731 mmHg 56%
    02:00 +8°C° 0 mm 1 mps 731 mmHg 57%
    03:00 +8°C° 0 mm 1 mps 731 mmHg 58%
    04:00 +7°C° 0 mm 1 mps 731 mmHg 59%
    05:00 +9°C° 0 mm 1 mps 731 mmHg 57%
    06:00 +10°C° 0 mm 1 mps 731 mmHg 54%
    07:00 +12°C° 0 mm 1 mps 731 mmHg 52%
    08:00 +13°C° 0 mm 2 mps 731 mmHg 46%
    09:00 +15°C° 0 mm 2 mps 731 mmHg 41%
    10:00 +17°C° 0 mm 3 mps 731 mmHg 36%
    11:00 +17°C° 0 mm 3 mps 731 mmHg 33%
    12:00 +18°C° 0 mm 3 mps 731 mmHg 29%
    13:00 +19°C° 0 mm 3 mps 731 mmHg 26%
    14:00 +18°C° 0 mm 3 mps 730 mmHg 27%
    15:00 +18°C° 0 mm 4 mps 730 mmHg 27%
    16:00 +18°C° 0 mm 4 mps 730 mmHg 28%
    17:00 +16°C° 0 mm 3 mps 729 mmHg 32%
    18:00 +13°C° 0 mm 3 mps 729 mmHg 37%
    19:00 +12°C° 0 mm 2 mps 729 mmHg 42%
    20:00 +10°C° 0 mm 2 mps 729 mmHg 47%
    21:00 +9°C° 0 mm 2 mps 729 mmHg 51%
    22:00 +8°C° 0 mm 2 mps 729 mmHg 56%
    23:00 +8°C° 0 mm 2 mps 729 mmHg 60%

    Tomorrow, 21 April, Sunday

    Time Temperature Precipitation Wind Pressure Humidity
    00:00 +7°C° 0 mm 2 mps 728 mmHg 64%
    01:00 +6°C° 0 mm 2 mps 728 mmHg 68%
    02:00 +7°C° 0 mm 1 mps 728 mmHg 70%
    03:00 +7°C° 0 mm 1 mps 728 mmHg 73%
    04:00 +6°C° 0 mm 1 mps 728 mmHg 76%
    05:00 +6°C° 0 mm 2 mps 728 mmHg 72%
    06:00 +7°C° 0 mm 2 mps 728 mmHg 69%
    07:00 +8°C° 0 mm 2 mps 728 mmHg 66%
    08:00 +10°C° 0 mm 3 mps 728 mmHg 59%
    09:00 +11°C° 0 mm 3 mps 727 mmHg 53%
    10:00 +13°C° 0 mm 4 mps 727 mmHg 47%
    11:00 +14°C° 0 mm 4 mps 727 mmHg 46%
    12:00 +14°C° 0 mm 4 mps 727 mmHg 44%
    13:00 +15°C° 0 mm 4 mps 726 mmHg 43%
    14:00 +15°C° 0 mm 4 mps 726 mmHg 44%
    15:00 +15°C° 0 mm 4 mps 726 mmHg 44%
    16:00 +15°C° 0 mm 4 mps 725 mmHg 45%
    17:00 +13°C° 0 mm 3 mps 725 mmHg 48%
    18:00 +12°C° 0 mm 3 mps 725 mmHg 52%
    19:00 +10°C° 0 mm 2 mps 725 mmHg 55%
    20:00 +10°C° 0 mm 1 mps 725 mmHg 58%
    21:00 +9°C° 0 mm 1 mps 725 mmHg 60%
    22:00 +7°C° 0 mm 0 mps 725 mmHg 63%
    23:00 +8°C° 0 mm 1 mps 724 mmHg 63%

    Day after tomorrow, 22 April, Monday

    Time Temperature Precipitation Wind Pressure Humidity
    00:00 +8°C° 0 mm 1 mps 724 mmHg 63%
    01:00 +7°C° 0 mm 2 mps 724 mmHg 63%
    02:00 +7°C° 0.1 mm 2 mps 724 mmHg 66%
    03:00 +6°C° 0.1 mm 2 mps 723 mmHg 69%
    04:00 +7°C° 0.1 mm 1 mps 723 mmHg 72%
    05:00 +6°C° 0.4 mm 2 mps 723 mmHg 74%
    06:00 +7°C° 0.4 mm 2 mps 723 mmHg 75%
    07:00 +7°C° 0.4 mm 2 mps 723 mmHg 77%
    08:00 +8°C° 0.2 mm 3 mps 723 mmHg 74%
    09:00 +8°C° 0.2 mm 4 mps 723 mmHg 71%
    10:00 +10°C° 0.2 mm 4 mps 723 mmHg 68%
    11:00 +10°C° 0.3 mm 5 mps 723 mmHg 63%
    12:00 +13°C° 0.3 mm 5 mps 723 mmHg 57%
    13:00 +14°C° 0.3 mm 5 mps 723 mmHg 51%
    14:00 +14°C° 0.3 mm 5 mps 723 mmHg 52%
    15:00 +13°C° 0.3 mm 6 mps 723 mmHg 53%
    16:00 +13°C° 0.3 mm 6 mps 723 mmHg 54%
    17:00 +11°C° 0 mm 6 mps 722 mmHg 62%
    18:00 +10°C° 0 mm 5 mps 722 mmHg 69%
    19:00 +9°C° 0 mm 5 mps 722 mmHg 77%
    20:00 +8°C° 0 mm 6 mps 722 mmHg 78%
    21:00 +8°C° 0 mm 6 mps 722 mmHg 79%
    22:00 +7°C° 0 mm 6 mps 722 mmHg 80%
    23:00 +7°C° 0 mm 6 mps 722 mmHg 80%

    23 April, Tuesday

    Time Temperature Precipitation Wind Pressure Humidity
    00:00 +5°C° 0 mm 6 mps 722 mmHg 81%
    01:00 +5°C° 0 mm 6 mps 721 mmHg 81%
    02:00 +5°C° 0 mm 6 mps 721 mmHg 82%
    03:00 +5°C° 0 mm 6 mps 721 mmHg 84%
    04:00 +5°C° 0 mm 7 mps 721 mmHg 85%
    05:00 +6°C° 0 mm 7 mps 721 mmHg 81%
    06:00 +6°C° 0 mm 7 mps 721 mmHg 77%
    07:00 +7°C° 0 mm 8 mps 721 mmHg 73%
    08:00 +10°C° 0 mm 8 mps 721 mmHg 67%
    09:00 +11°C° 0 mm 8 mps 721 mmHg 60%
    10:00 +13°C° 0 mm 8 mps 721 mmHg 53%
    11:00 +15°C° 0 mm 9 mps 721 mmHg 52%
    12:00 +15°C° 0 mm 9 mps 721 mmHg 50%
    13:00 +16°C° 0 mm 10 mps 721 mmHg 49%
    14:00 +12°C° 0.4 mm 9 mps 721 mmHg 58%
    15:00 +10°C° 0.4 mm 9 mps 720 mmHg 66%
    16:00 +7°C° 0.4 mm 9 mps 720 mmHg 75%
    17:00 +7°C° 0.7 mm 8 mps 720 mmHg 76%
    18:00 +8°C° 0.7 mm 7 mps 720 mmHg 77%
    19:00 +8°C° 0.7 mm 7 mps 720 mmHg 78%
    20:00 +8°C° 0 mm 6 mps 719 mmHg 78%
    21:00 +7°C° 0 mm 5 mps 719 mmHg 79%
    22:00 +7°C° 0 mm 5 mps 719 mmHg 79%
    23:00 +8°C° 0 mm 5 mps 719 mmHg 78%

    24 April, Wednesday

    Time Temperature Precipitation Wind Pressure Humidity
    00:00 +8°C° 0 mm 5 mps 719 mmHg 76%
    01:00 +9°C° 0 mm 5 mps 719 mmHg 75%
    02:00 +9°C° 0 mm 5 mps 719 mmHg 78%
    03:00 +8°C° 0 mm 5 mps 719 mmHg 80%
    04:00 +8°C° 0 mm 4 mps 719 mmHg 83%
    05:00 +10°C° 0 mm 4 mps 719 mmHg 80%
    06:00 +11°C° 0 mm 4 mps 720 mmHg 76%
    07:00 +12°C° 0 mm 4 mps 720 mmHg 73%
    08:00 +14°C° 0 mm 5 mps 721 mmHg 65%
    09:00 +16°C° 0 mm 5 mps 721 mmHg 58%
    10:00 +20°C° 0 mm 5 mps 721 mmHg 50%
    11:00 +20°C° 0 mm 5 mps 722 mmHg 48%
    12:00 +21°C° 0 mm 5 mps 722 mmHg 46%
    13:00 +22°C° 0 mm 5 mps 722 mmHg 44%
    14:00 +22°C° 0 mm 5 mps 722 mmHg 46%
    15:00 +21°C° 0 mm 5 mps 722 mmHg 47%
    16:00 +20°C° 0 mm 5 mps 722 mmHg 49%
    17:00 +19°C° 0 mm 4 mps 722 mmHg 55%
    18:00 +17°C° 0 mm 4 mps 722 mmHg 61%
    19:00 +14°C° 0 mm 3 mps 721 mmHg 67%
    20:00 +13°C° 0 mm 3 mps 722 mmHg 70%
    21:00 +13°C° 0 mm 3 mps 722 mmHg 74%
    22:00 +12°C° 0 mm 4 mps 722 mmHg 77%
    23:00 +12°C° 0 mm 4 mps 722 mmHg 80%

    25 April, Thursday

    Time Temperature Precipitation Wind Pressure Humidity
    00:00 +12°C° 0 mm 4 mps 722 mmHg 83%
    01:00 +11°C° 0 mm 4 mps 722 mmHg 86%
    02:00 +11°C° 0 mm 4 mps 721 mmHg 87%
    03:00 +11°C° 0 mm 4 mps 721 mmHg 88%
    04:00 +11°C° 0 mm 4 mps 721 mmHg 89%
    05:00 +12°C° 0 mm 4 mps 722 mmHg 84%
    06:00 +13°C° 0 mm 4 mps 722 mmHg 79%
    07:00 +15°C° 0 mm 4 mps 722 mmHg 74%
    08:00 +18°C° 0 mm 4 mps 722 mmHg 65%
    09:00 +20°C° 0 mm 4 mps 722 mmHg 56%
    10:00 +22°C° 0 mm 4 mps 722 mmHg 47%
    11:00 +23°C° 0 mm 4 mps 722 mmHg 43%
    12:00 +25°C° 0 mm 4 mps 722 mmHg 40%
    13:00 +26°C° 0 mm 4 mps 722 mmHg 37%
    14:00 +26°C° 0 mm 4 mps 722 mmHg 37%
    15:00 +26°C° 0 mm 4 mps 722 mmHg 37%
    16:00 +26°C° 0 mm 4 mps 721 mmHg 37%
    17:00 +22°C° 0 mm 3 mps 721 mmHg 44%
    18:00 +20°C° 0 mm 3 mps 721 mmHg 50%
    19:00 +18°C° 0 mm 2 mps 721 mmHg 56%
    20:00 +17°C° 0 mm 2 mps 721 mmHg 62%
    21:00 +16°C° 0 mm 2 mps 720 mmHg 67%
    22:00 +15°C° 0 mm 2 mps 720 mmHg 73%
    23:00 +14°C° 0 mm 2 mps 720 mmHg 77%
    Show more